Wind_Speed
49 47 47 50 40 33 29 30 31 33 33 31 30 31 29 26 23 29 36 32 32 31 32 31 32 31 32 33 36 35 39 42
50 42 41 46 44 43 33 34 32 32 28 26 24 22 29 29 31 29 33 31 26 29 31 31 33 35 33 36 36 39 37 39
41 42 41 43 45 44 43 39 36 34 28 27 27 31 29 31 35 33 31 25 28 32 34 36 37 39 40 40 40 39 44 43
40 39 37 38 41 45 44 36 37 37 32 30 32 34 36 37 35 34 30 37 37 38 38 41 42 40 38 42 43 47 43 47
43 36 39 37 43 44 45 40 35 31 33 31 34 37 40 37 34 36 35 38 44 45 47 47 49 49 49 47 49 52 56 53
43 41 36 32 33 40 41 39 37 31 27 31 34 34 36 43 45 44 47 49 46 50 51 49 54 55 54 55 54 52 56 57
43 44 38 33 35 36 41 39 36 32 28 28 28 26 30 33 36 40 45 46 47 49 49 53 56 59 61 62 62 66 64 65
36 40 45 38 32 33 35 35 40 37 30 26 24 26 28 27 28 28 31 37 40 45 45 46 50 51 55 57 57 57 58 59
32 37 44 43 39 35 31 32 36 38 37 33 28 26 28 28 29 30 33 38 40 43 44 44 46 46 48 51 54 54 56 58
34 42 41 43 43 41 39 39 33 31 33 33 33 33 32 30 31 33 34 37 39 42 45 46 48 50 49 47 50 52 54 57
36 35 42 42 41 42 42 42 38 34 33 32 31 31 33 35 36 37 38 40 43 46 48 48 49 51 53 54 54 55 56 56
43 35 34 39 43 43 41 42 42 42 40 38 38 36 35 36 37 39 40 42 44 48 52 54 55 56 56 57 58 58 58 59
41 33 33 36 37 44 41 43 44 43 44 43 44 45 44 43 42 43 42 43 45 49 54 57 57 58 59 59 59 60 61 61
43 39 36 33 40 41 42 48 46 48 47 48 48 51 52 50 50 48 46 45 47 48 50 52 53 52 54 57 60 62 63 62
40 40 37 34 38 39 39 43 45 47 46 49 50 52 56 60 57 53 52 50 50 50 49 50 53 54 52 52 53 56 57 57
36 34 35 34 35 38 40 46 52 56 52 50 53 58 60 64 64 61 59 58 56 55 54 54 55 55 53 52 52 52 53 53
36 38 35 33 36 38 43 50 58 62 57 53 57 60 63 66 70 69 64 63 62 59 58 56 56 53 50 51 53 52 51 54
40 42 40 37 37 37 40 44 50 63 62 63 65 65 68 68 73 74 70 68 66 65 63 62 59 54 51 50 50 51 50 49
42 43 39 39 37 37 37 47 57 60 61 66 69 70 71 75 78 80 76 74 72 70 68 66 63 59 55 52 51 49 48 49
47 47 41 41 41 38 44 53 61 66 66 69 70 72 73 75 80 80 81 79 77 75 73 72 69 66 61 56 51 47 47 49
Wind_Direction
344 340 330 323 333 331 325 310 300 295 293 295 295 288 291 283 289 274 271 283 266 265 264 266 270 270 271 265 260 262 259 254
348 345 326 329 330 332 322 320 311 311 301 303 298 289 288 280 287 285 278 277 273 278 278 273 269 271 266 267 267 258 262 260
350 350 335 331 333 331 330 333 319 317 313 308 294 290 291 292 298 287 290 274 272 271 270 269 269 274 275 271 263 260 258 260
349 347 337 330 331 334 333 333 323 317 313 310 304 303 302 299 306 301 297 297 299 296 291 291 290 289 284 277 268 268 268 263
352 350 345 329 328 329 327 333 326 317 313 311 303 300 294 297 285 280 285 281 287 282 288 278 278 277 280 276 265 266 264 268
350 351 347 343 331 328 332 330 328 323 316 309 303 298 294 285 285 281 277 278 278 279 279 276 272 272 275 278 276 270 269 264
346 350 348 350 338 325 324 327 324 324 322 312 305 301 295 294 294 291 286 283 282 283 279 278 279 278 278 278 278 278 278 274
348 354 355 351 343 339 326 323 326 324 323 321 318 313 309 307 301 291 286 284 286 290 286 281 281 281 282 280 279 277 276 276
344 350 345 356 351 348 342 332 328 323 321 319 321 316 312 311 306 299 296 293 291 288 287 289 289 286 283 283 282 280 275 273
336 342 345 346 351 357 355 348 342 333 325 321 320 318 316 313 311 307 303 301 300 297 294 293 292 291 289 285 284 282 281 278
327 338 337 336 347 350 358 359 356 347 337 332 324 318 312 308 305 301 299 296 296 294 292 290 288 287 287 287 286 286 284 283
318 328 339 340 339 344 346 352 357 356 357 352 344 335 324 316 309 304 301 298 296 294 291 291 289 287 286 286 285 284 285 286
323 325 324 336 332 334 343 343 342 346 349 345 353 347 342 338 332 326 318 313 308 304 300 296 292 290 289 286 284 283 283 284
321 319 320 323 320 328 342 348 342 343 341 345 346 346 348 345 340 334 330 320 314 314 309 305 300 294 291 288 283 282 283 284
317 314 313 318 316 326 335 347 342 341 338 336 340 343 345 344 343 340 336 331 326 322 317 313 307 302 297 294 290 287 286 285
313 315 312 314 319 327 336 347 347 347 342 335 336 338 341 344 347 343 340 337 335 332 330 325 318 311 303 300 298 295 291 289
307 310 317 323 323 325 336 346 344 344 344 339 340 339 338 343 344 344 342 339 338 335 332 329 324 318 311 302 299 299 297 294
305 309 313 316 321 324 336 335 341 340 343 342 337 337 340 342 343 344 344 341 341 338 334 332 329 324 320 311 304 300 296 294
308 310 310 314 319 324 331 341 343 336 335 335 337 338 339 342 343 343 343 342 340 340 337 334 332 328 321 315 307 303 298 295
299 302 313 316 320 325 328 336 336 334 332 337 335 337 338 339 341 340 341 340 339 339 337 336 334 332 327 318 308 302 298 295
Height
10814 10807 10799 10791 10787 10782 10779 10775 10771 10767 10765 10763 10760 10760 10758 10756 10755 10755 10752 10751 10748 10747 10747 10747 10746 10747 10749 10750 10746 10746 10747 10747
10812 10805 10796 10789 10781 10777 10773 10770 10766 10762 10760 10757 10755 10754 10753 10750 10748 10747 10745 10744 10741 10740 10738 10738 10737 10738 10738 10739 10738 10738 10738 10739
10807 10800 10794 10787 10781 10773 10767 10764 10759 10757 10754 10751 10750 10748 10745 10743 10741 10739 10737 10737 10736 10733 10731 10730 10729 10729 10729 10727 10728 10728 10729 10728
10803 10796 10790 10782 10776 10772 10766 10760 10753 10749 10748 10745 10743 10741 10738 10737 10733 10731 10729 10729 10727 10725 10723 10721 10720 10719 10719 10715 10717 10718 10717 10715
10799 10793 10787 10779 10773 10768 10761 10756 10751 10746 10741 10737 10735 10733 10731 10729 10727 10725 10723 10722 10720 10718 10714 10712 10711 10709 10708 10707 10707 10706 10704 10703
10794 10789 10783 10776 10770 10762 10757 10752 10746 10741 10738 10734 10730 10728 10724 10721 10718 10718 10714 10713 10711 10707 10703 10701 10698 10696 10694 10693 10694 10692 10689 10689
10791 10785 10779 10772 10765 10759 10752 10747 10742 10736 10731 10727 10724 10721 10718 10715 10712 10709 10705 10702 10698 10694 10691 10689 10686 10683 10681 10679 10678 10675 10674 10672
10790 10783 10777 10769 10763 10757 10750 10745 10738 10733 10728 10723 10720 10717 10712 10708 10705 10702 10697 10693 10689 10684 10681 10679 10675 10673 10669 10665 10663 10662 10660 10657
10788 10780 10774 10767 10761 10754 10748 10742 10735 10730 10725 10720 10717 10713 10708 10703 10699 10696 10691 10687 10681 10675 10672 10670 10665 10661 10658 10652 10646 10645 10643 10640
10785 10778 10772 10766 10759 10751 10743 10738 10733 10729 10723 10719 10714 10708 10703 10698 10693 10689 10684 10678 10672 10666 10661 10658 10652 10646 10644 10639 10632 10629 10626 10624
10782 10775 10768 10762 10755 10749 10743 10738 10732 10726 10721 10715 10711 10706 10698 10693 10688 10682 10676 10671 10664 10655 10650 10647 10643 10635 10631 10626 10621 10616 10611 10608
10779 10771 10766 10759 10753 10747 10741 10736 10730 10724 10718 10712 10706 10701 10693 10687 10681 10674 10668 10661 10654 10645 10636 10633 10629 10623 10619 10614 10609 10603 10597 10593
10774 10766 10759 10753 10749 10744 10738 10732 10726 10720 10715 10710 10702 10696 10690 10680 10671 10664 10658 10650 10644 10635 10625 10618 10615 10608 10602 10598 10593 10588 10582 10578
10769 10763 10756 10749 10746 10742 10736 10730 10721 10716 10710 10703 10697 10690 10683 10676 10666 10656 10649 10640 10632 10624 10613 10602 10596 10593 10587 10581 10576 10573 10567 10563
10764 10758 10752 10745 10741 10736 10731 10725 10719 10713 10705 10697 10689 10683 10675 10667 10658 10648 10639 10630 10622 10613 10603 10592 10581 10573 10568 10564 10558 10555 10550 10546
10758 10752 10746 10739 10734 10728 10722 10714 10707 10702 10695 10691 10684 10674 10666 10657 10647 10638 10628 10618 10608 10600 10590 10581 10571 10560 10552 10545 10539 10535 10531 10528
10752 10747 10742 10733 10727 10720 10713 10705 10697 10692 10686 10680 10673 10665 10658 10650 10640 10629 10619 10607 10597 10588 10579 10570 10561 10550 10541 10533 10526 10518 10513 10506
10747 10740 10735 10730 10723 10716 10708 10702 10693 10686 10675 10669 10664 10657 10646 10636 10626 10618 10608 10597 10586 10576 10567 10557 10548 10539 10530 10520 10513 10507 10501 10495
10739 10735 10727 10722 10716 10709 10703 10697 10687 10678 10671 10663 10653 10644 10634 10624 10615 10605 10598 10587 10576 10566 10555 10545 10535 10526 10518 10509 10500 10493 10487 10482
10729 10726 10720 10712 10707 10700 10693 10685 10681 10674 10663 10652 10641 10634 10624 10615 10606 10596 10587 10577 10566 10556 10544 10534 10524 10513 10503 10494 10486 10479 10473 10467